Location: Feydey
(46.3431°N, 7.0106°E)
Time: 21:41:45
(UTC+00:00)

Cosmos 2333 Rocket - Pass Details

Date: 20 June 2021
Orbit: 841 x 861 km, 70.8° (Epoch: 23 July)

Event Time Altitude Azimuth Distance (km) Brightness Sun altitude
Rises 22:00:17 0° 230° (SW) 3,425 5.2 -17.1°
Reaches altitude 10° 22:02:55 10° 238° (WSW) 2,490 4.5 -17.2°
Maximum altitude 22:08:14 39° 306° (NW) 1,267 3.6 -17.6°
Drops below altitude 10° 22:13:35 10° 15° (NNE) 2,492 5.5 -17.9°
Sets 22:16:13 0° 23° (NNE) 3,428 6.1 -18.0°
